contact:dominique.lefevre@mio.osupytheas.fr, maurice.libes@osupytheas.fr, didier.mallarino@osupytheas.fr
Project:EMSO http://www.emso-fr.org/EMSO-France
Depth: 2436.0 m
Title:EMSO Ligure Ouest : Data MII capteur MICROCAT
DateTime_Computer,Latitude,Longitude,Temperature,Conductivity,Pressure,DateTime_Instrument
DateTime_Computer,Latitude,Longitude,degC,S m-1,dbar,DateTime_Instrument
2022-10-09T00:01:34Z,42.805,6.029,13.3011,4.60057,2470.497,2022-10-09T02:03:29Z
2022-10-09T00:04:37Z,42.805,6.029,13.3007,4.60052,2470.507,2022-10-09T02:06:32Z
2022-10-09T00:07:40Z,42.805,6.029,13.3010,4.60053,2470.483,2022-10-09T02:09:35Z
2022-10-09T00:10:43Z,42.805,6.029,13.3007,4.60059,2470.483,2022-10-09T02:12:38Z
2022-10-09T00:13:47Z,42.805,6.029,13.3006,4.60062,2470.483,2022-10-09T02:15:41Z
2022-10-09T00:16:50Z,42.805,6.029,13.3009,4.60059,2470.474,2022-10-09T02:18:44Z
2022-10-09T00:19:53Z,42.805,6.029,13.3006,4.60057,2470.52,2022-10-09T02:21:47Z
2022-10-09T00:22:56Z,42.805,6.029,13.3009,4.60062,2470.483,2022-10-09T02:24:50Z
2022-10-09T00:25:59Z,42.805,6.029,13.3011,4.60058,2470.483,2022-10-09T02:27:54Z
2022-10-09T00:29:02Z,42.805,6.029,13.3006,4.60059,2470.483,2022-10-09T02:30:57Z
2022-10-09T00:32:05Z,42.805,6.029,13.3011,4.60057,2470.497,2022-10-09T02:34:00Z
2022-10-09T00:35:08Z,42.805,6.029,13.3011,4.60060,2470.483,2022-10-09T02:37:03Z
2022-10-09T00:38:11Z,42.805,6.029,13.3012,4.60057,2470.497,2022-10-09T02:40:06Z
2022-10-09T00:41:15Z,42.805,6.029,13.3009,4.60055,2470.46,2022-10-09T02:43:09Z
2022-10-09T00:44:18Z,42.805,6.029,13.3010,4.60054,2470.46,2022-10-09T02:46:12Z
2022-10-09T00:47:21Z,42.805,6.029,13.3010,4.60054,2470.483,2022-10-09T02:49:15Z
2022-10-09T00:50:24Z,42.805,6.029,13.3009,4.60054,2470.483,2022-10-09T02:52:19Z
2022-10-09T00:53:27Z,42.805,6.029,13.3011,4.60060,2470.46,2022-10-09T02:55:22Z
2022-10-09T00:56:30Z,42.805,6.029,13.3009,4.60061,2470.437,2022-10-09T02:58:25Z
2022-10-09T00:59:33Z,42.805,6.029,13.3010,4.60058,2470.483,2022-10-09T03:01:28Z
2022-10-09T01:02:36Z,42.805,6.029,13.3010,4.60055,2470.474,2022-10-09T03:04:31Z
2022-10-09T01:05:40Z,42.805,6.029,13.3008,4.60061,2470.46,2022-10-09T03:07:34Z
2022-10-09T01:08:43Z,42.805,6.029,13.3008,4.60057,2470.46,2022-10-09T03:10:37Z
2022-10-09T01:11:46Z,42.805,6.029,13.3007,4.60053,2470.46,2022-10-09T03:13:40Z
2022-10-09T01:14:49Z,42.805,6.029,13.3006,4.60054,2470.46,2022-10-09T03:16:43Z
2022-10-09T01:17:52Z,42.805,6.029,13.3008,4.60056,2470.474,2022-10-09T03:19:47Z
2022-10-09T01:20:55Z,42.805,6.029,13.3011,4.60074,2470.46,2022-10-09T03:22:50Z
2022-10-09T01:23:58Z,42.805,6.029,13.3009,4.60061,2470.483,2022-10-09T03:25:53Z
2022-10-09T01:27:01Z,42.805,6.029,13.3007,4.60064,2470.474,2022-10-09T03:28:56Z
2022-10-09T01:30:04Z,42.805,6.029,13.3011,4.60056,2470.45,2022-10-09T03:31:59Z
2022-10-09T01:33:08Z,42.805,6.029,13.3009,4.60054,2470.497,2022-10-09T03:35:02Z
2022-10-09T01:36:11Z,42.805,6.029,13.3005,4.60056,2470.413,2022-10-09T03:38:05Z
2022-10-09T01:39:14Z,42.805,6.029,13.3011,4.60055,2470.46,2022-10-09T03:41:08Z
2022-10-09T01:42:17Z,42.805,6.029,13.3011,4.60057,2470.497,2022-10-09T03:44:11Z
2022-10-09T01:45:20Z,42.805,6.029,13.3007,4.60058,2470.46,2022-10-09T03:47:15Z
2022-10-09T01:48:23Z,42.805,6.029,13.3009,4.60057,2470.474,2022-10-09T03:50:18Z
2022-10-09T01:51:26Z,42.805,6.029,13.3009,4.60083,2470.437,2022-10-09T03:53:21Z
2022-10-09T01:54:29Z,42.805,6.029,13.3009,4.60057,2470.46,2022-10-09T03:56:24Z
2022-10-09T01:57:33Z,42.805,6.029,13.3011,4.60064,2470.483,2022-10-09T03:59:27Z
2022-10-09T02:00:36Z,42.805,6.029,13.3008,4.60059,2470.46,2022-10-09T04:02:30Z
2022-10-09T02:03:39Z,42.805,6.029,13.3010,4.60057,2470.45,2022-10-09T04:05:33Z
2022-10-09T02:06:42Z,42.805,6.029,13.3011,4.60060,2470.437,2022-10-09T04:08:36Z
2022-10-09T02:09:45Z,42.805,6.029,13.3010,4.60062,2470.46,2022-10-09T04:11:40Z
2022-10-09T02:12:48Z,42.805,6.029,13.3009,4.60062,2470.437,2022-10-09T04:14:43Z
2022-10-09T02:15:51Z,42.805,6.029,13.3006,4.60061,2470.46,2022-10-09T04:17:46Z
2022-10-09T02:18:54Z,42.805,6.029,13.3009,4.60056,2470.46,2022-10-09T04:20:49Z
2022-10-09T02:21:57Z,42.805,6.029,13.3007,4.60059,2470.497,2022-10-09T04:23:52Z
2022-10-09T02:25:01Z,42.805,6.029,13.3012,4.60057,2470.413,2022-10-09T04:26:55Z
2022-10-09T02:28:04Z,42.805,6.029,13.3011,4.60058,2470.46,2022-10-09T04:29:58Z
2022-10-09T02:31:07Z,42.805,6.029,13.3009,4.60058,2470.46,2022-10-09T04:33:01Z
2022-10-09T02:34:10Z,42.805,6.029,13.3011,4.60062,2470.483,2022-10-09T04:36:04Z
2022-10-09T02:37:13Z,42.805,6.029,13.3014,4.60059,2470.483,2022-10-09T04:39:08Z
2022-10-09T02:40:16Z,42.805,6.029,13.3012,4.60064,2470.45,2022-10-09T04:42:11Z
2022-10-09T02:43:19Z,42.805,6.029,13.3013,4.60069,2470.483,2022-10-09T04:45:14Z
2022-10-09T02:46:22Z,42.805,6.029,13.3006,4.60092,2470.483,2022-10-09T04:48:17Z
2022-10-09T02:49:25Z,42.805,6.029,13.3009,4.60058,2470.483,2022-10-09T04:51:20Z
2022-10-09T02:52:29Z,42.805,6.029,13.3011,4.60062,2470.497,2022-10-09T04:54:23Z
2022-10-09T02:55:32Z,42.805,6.029,13.3012,4.60061,2470.46,2022-10-09T04:57:26Z
2022-10-09T02:58:35Z,42.805,6.029,13.3014,4.60059,2470.52,2022-10-09T05:00:29Z
2022-10-09T03:01:38Z,42.805,6.029,13.3011,4.60059,2470.483,2022-10-09T05:03:33Z
2022-10-09T03:04:41Z,42.805,6.029,13.3011,4.60059,2470.507,2022-10-09T05:06:36Z
2022-10-09T03:07:44Z,42.805,6.029,13.3012,4.60060,2470.507,2022-10-09T05:09:39Z
2022-10-09T03:10:47Z,42.805,6.029,13.3011,4.60055,2470.46,2022-10-09T05:12:42Z
2022-10-09T03:13:50Z,42.805,6.029,13.3007,4.60055,2470.507,2022-10-09T05:15:45Z
2022-10-09T03:16:54Z,42.805,6.029,13.3010,4.60057,2470.497,2022-10-09T05:18:48Z
2022-10-09T03:19:57Z,42.805,6.029,13.3012,4.60068,2470.497,2022-10-09T05:21:51Z
2022-10-09T03:23:00Z,42.805,6.029,13.3012,4.60057,2470.52,2022-10-09T05:24:54Z
2022-10-09T03:26:03Z,42.805,6.029,13.3009,4.60057,2470.483,2022-10-09T05:27:57Z
2022-10-09T03:29:06Z,42.805,6.029,13.3014,4.60058,2470.52,2022-10-09T05:31:01Z
2022-10-09T03:32:09Z,42.805,6.029,13.3014,4.60057,2470.52,2022-10-09T05:34:04Z
2022-10-09T03:35:12Z,42.805,6.029,13.3013,4.60061,2470.53,2022-10-09T05:37:07Z
2022-10-09T03:38:15Z,42.805,6.029,13.3014,4.60066,2470.544,2022-10-09T05:40:10Z
2022-10-09T03:41:18Z,42.805,6.029,13.3013,4.60067,2470.544,2022-10-09T05:43:13Z
2022-10-09T03:44:22Z,42.805,6.029,13.3013,4.60073,2470.483,2022-10-09T05:46:16Z
2022-10-09T03:47:25Z,42.805,6.029,13.3010,4.60069,2470.507,2022-10-09T05:49:19Z
2022-10-09T03:50:28Z,42.805,6.029,13.3014,4.60074,2470.507,2022-10-09T05:52:22Z
2022-10-09T03:53:31Z,42.805,6.029,13.3012,4.60075,2470.483,2022-10-09T05:55:25Z
2022-10-09T03:56:34Z,42.805,6.029,13.3011,4.60061,2470.553,2022-10-09T05:58:29Z
2022-10-09T03:59:37Z,42.805,6.029,13.3008,4.60054,2470.53,2022-10-09T06:01:32Z
2022-10-09T04:02:40Z,42.805,6.029,13.3009,4.60056,2470.53,2022-10-09T06:04:35Z
2022-10-09T04:05:43Z,42.805,6.029,13.3008,4.60058,2470.6,2022-10-09T06:07:38Z
2022-10-09T04:08:46Z,42.805,6.029,13.3011,4.60059,2470.544,2022-10-09T06:10:41Z
2022-10-09T04:11:50Z,42.805,6.029,13.3007,4.60059,2470.591,2022-10-09T06:13:44Z
2022-10-09T04:14:53Z,42.805,6.029,13.3012,4.60059,2470.53,2022-10-09T06:16:47Z
2022-10-09T04:17:56Z,42.805,6.029,13.3011,4.60057,2470.577,2022-10-09T06:19:50Z
2022-10-09T04:20:59Z,42.805,6.029,13.3011,4.60059,2470.567,2022-10-09T06:22:54Z
2022-10-09T04:24:02Z,42.805,6.029,13.3014,4.60060,2470.591,2022-10-09T06:25:57Z
2022-10-09T04:27:05Z,42.805,6.029,13.3014,4.60062,2470.604,2022-10-09T06:29:00Z
2022-10-09T04:30:08Z,42.805,6.029,13.3011,4.60062,2470.614,2022-10-09T06:32:03Z
2022-10-09T04:33:11Z,42.805,6.029,13.3017,4.60062,2470.553,2022-10-09T06:35:06Z
2022-10-09T04:36:15Z,42.805,6.029,13.3009,4.60066,2470.591,2022-10-09T06:38:09Z
2022-10-09T04:39:18Z,42.805,6.029,13.3012,4.60067,2470.591,2022-10-09T06:41:12Z
2022-10-09T04:42:21Z,42.805,6.029,13.3014,4.60064,2470.567,2022-10-09T06:44:15Z
2022-10-09T04:45:24Z,42.805,6.029,13.3009,4.60072,2470.614,2022-10-09T06:47:18Z
2022-10-09T04:48:27Z,42.805,6.029,13.3013,4.60069,2470.591,2022-10-09T06:50:22Z
2022-10-09T04:51:30Z,42.805,6.029,13.3008,4.60065,2470.6,2022-10-09T06:53:25Z
2022-10-09T04:54:33Z,42.805,6.029,13.3012,4.60071,2470.6,2022-10-09T06:56:28Z
2022-10-09T04:57:36Z,42.805,6.029,13.3021,4.60066,2470.637,2022-10-09T06:59:31Z
2022-10-09T05:00:39Z,42.805,6.029,13.3021,4.60070,2470.614,2022-10-09T07:02:34Z
2022-10-09T05:03:43Z,42.805,6.029,13.3019,4.60069,2470.614,2022-10-09T07:05:37Z
2022-10-09T05:06:46Z,42.805,6.029,13.3016,4.60071,2470.6,2022-10-09T07:08:40Z
2022-10-09T05:09:49Z,42.805,6.029,13.3021,4.60072,2470.637,2022-10-09T07:11:43Z
2022-10-09T05:12:52Z,42.805,6.029,13.3026,4.60070,2470.6,2022-10-09T07:14:47Z
2022-10-09T05:15:55Z,42.805,6.029,13.3018,4.60064,2470.614,2022-10-09T07:17:50Z
2022-10-09T05:18:58Z,42.805,6.029,13.3014,4.60063,2470.6,2022-10-09T07:20:53Z
2022-10-09T05:22:01Z,42.805,6.029,13.3025,4.60066,2470.637,2022-10-09T07:23:56Z
2022-10-09T05:25:04Z,42.805,6.029,13.3023,4.60066,2470.637,2022-10-09T07:26:59Z
2022-10-09T05:28:08Z,42.805,6.029,13.3025,4.60064,2470.661,2022-10-09T07:30:02Z
2022-10-09T05:31:11Z,42.805,6.029,13.3015,4.60064,2470.624,2022-10-09T07:33:05Z
2022-10-09T05:34:14Z,42.805,6.029,13.3019,4.60067,2470.624,2022-10-09T07:36:08Z
2022-10-09T05:37:17Z,42.805,6.029,13.3022,4.60069,2470.637,2022-10-09T07:39:11Z
2022-10-09T05:40:20Z,42.805,6.029,13.3038,4.60069,2470.661,2022-10-09T07:42:15Z
2022-10-09T05:43:23Z,42.805,6.029,13.3028,4.60067,2470.637,2022-10-09T07:45:18Z
2022-10-09T05:46:26Z,42.805,6.029,13.3032,4.60065,2470.661,2022-10-09T07:48:21Z
2022-10-09T05:49:29Z,42.805,6.029,13.3031,4.60082,2470.6,2022-10-09T07:51:24Z
2022-10-09T05:52:32Z,42.805,6.029,13.3021,4.60077,2470.637,2022-10-09T07:54:27Z
2022-10-09T05:55:36Z,42.805,6.029,13.3027,4.60081,2470.637,2022-10-09T07:57:30Z
2022-10-09T05:58:39Z,42.805,6.029,13.3028,4.60061,2470.624,2022-10-09T08:00:33Z
2022-10-09T06:01:42Z,42.805,6.029,13.3017,4.60069,2470.624,2022-10-09T08:03:36Z
2022-10-09T06:04:45Z,42.805,6.029,13.3013,4.60077,2470.661,2022-10-09T08:06:40Z
2022-10-09T06:07:48Z,42.805,6.029,13.3024,4.60064,2470.646,2022-10-09T08:09:43Z
2022-10-09T06:10:51Z,42.805,6.029,13.3018,4.60064,2470.637,2022-10-09T08:12:46Z
2022-10-09T06:13:54Z,42.805,6.029,13.3027,4.60066,2470.637,2022-10-09T08:15:49Z
2022-10-09T06:16:57Z,42.805,6.029,13.3020,4.60081,2470.624,2022-10-09T08:18:52Z
2022-10-09T06:20:01Z,42.805,6.029,13.3017,4.60073,2470.661,2022-10-09T08:21:55Z
2022-10-09T06:23:04Z,42.805,6.029,13.3021,4.60068,2470.646,2022-10-09T08:24:58Z
2022-10-09T06:26:07Z,42.805,6.029,13.3017,4.60059,2470.661,2022-10-09T08:28:01Z
2022-10-09T06:29:10Z,42.805,6.029,13.3014,4.60065,2470.637,2022-10-09T08:31:04Z
2022-10-09T06:32:13Z,42.805,6.029,13.3009,4.60065,2470.646,2022-10-09T08:34:08Z
2022-10-09T06:35:16Z,42.805,6.029,13.3019,4.60069,2470.661,2022-10-09T08:37:11Z
2022-10-09T06:38:19Z,42.805,6.029,13.3014,4.60071,2470.6,2022-10-09T08:40:14Z
2022-10-09T06:41:22Z,42.805,6.029,13.3018,4.60069,2470.637,2022-10-09T08:43:17Z
2022-10-09T06:44:25Z,42.805,6.029,13.3022,4.60072,2470.646,2022-10-09T08:46:20Z
2022-10-09T06:47:29Z,42.805,6.029,13.3022,4.60062,2470.684,2022-10-09T08:49:23Z
2022-10-09T06:50:32Z,42.805,6.029,13.3011,4.60058,2470.684,2022-10-09T08:52:26Z
2022-10-09T06:53:35Z,42.805,6.029,13.3012,4.60056,2470.67,2022-10-09T08:55:29Z
2022-10-09T06:56:38Z,42.805,6.029,13.3013,4.60055,2470.637,2022-10-09T08:58:33Z
2022-10-09T06:59:41Z,42.805,6.029,13.3010,4.60059,2470.661,2022-10-09T09:01:36Z
2022-10-09T07:02:44Z,42.805,6.029,13.3011,4.60062,2470.646,2022-10-09T09:04:39Z
2022-10-09T07:05:47Z,42.805,6.029,13.3013,4.60059,2470.646,2022-10-09T09:07:42Z
2022-10-09T07:08:50Z,42.805,6.029,13.3016,4.60059,2470.637,2022-10-09T09:10:45Z
2022-10-09T07:11:53Z,42.805,6.029,13.3017,4.60056,2470.67,2022-10-09T09:13:48Z
2022-10-09T07:14:57Z,42.805,6.029,13.3016,4.60056,2470.646,2022-10-09T09:16:51Z
2022-10-09T07:18:00Z,42.805,6.029,13.3014,4.60057,2470.637,2022-10-09T09:19:54Z
2022-10-09T07:21:03Z,42.805,6.029,13.3015,4.60068,2470.637,2022-10-09T09:22:57Z
2022-10-09T07:24:06Z,42.805,6.029,13.3010,4.60067,2470.646,2022-10-09T09:26:01Z
2022-10-09T07:27:09Z,42.805,6.029,13.3014,4.60061,2470.624,2022-10-09T09:29:04Z
2022-10-09T07:30:12Z,42.805,6.029,13.3019,4.60059,2470.646,2022-10-09T09:32:07Z
2022-10-09T07:33:15Z,42.805,6.029,13.3020,4.60065,2470.646,2022-10-09T09:35:10Z
2022-10-09T07:36:18Z,42.805,6.029,13.3024,4.60069,2470.661,2022-10-09T09:38:13Z
2022-10-09T07:39:22Z,42.805,6.029,13.3022,4.60062,2470.624,2022-10-09T09:41:16Z
2022-10-09T07:42:25Z,42.805,6.029,13.3011,4.60060,2470.614,2022-10-09T09:44:19Z
2022-10-09T07:45:28Z,42.805,6.029,13.3011,4.60059,2470.637,2022-10-09T09:47:22Z
2022-10-09T07:48:31Z,42.805,6.029,13.3009,4.60063,2470.586,2022-10-09T09:50:25Z
2022-10-09T07:51:34Z,42.805,6.029,13.3010,4.60058,2470.661,2022-10-09T09:53:29Z
2022-10-09T07:54:37Z,42.805,6.029,13.3008,4.60070,2470.6,2022-10-09T09:56:32Z
2022-10-09T07:57:40Z,42.805,6.029,13.3011,4.60067,2470.637,2022-10-09T09:59:35Z
2022-10-09T08:00:43Z,42.805,6.029,13.3011,4.60059,2470.614,2022-10-09T10:02:38Z
2022-10-09T08:03:46Z,42.805,6.029,13.3013,4.60060,2470.637,2022-10-09T10:05:41Z
2022-10-09T08:06:50Z,42.805,6.029,13.3016,4.60061,2470.6,2022-10-09T10:08:44Z
2022-10-09T08:09:53Z,42.805,6.029,13.3009,4.60062,2470.624,2022-10-09T10:11:47Z
2022-10-09T08:12:56Z,42.805,6.029,13.3010,4.60062,2470.637,2022-10-09T10:14:50Z
2022-10-09T08:15:59Z,42.805,6.029,13.3014,4.60063,2470.6,2022-10-09T10:17:54Z
2022-10-09T08:19:02Z,42.805,6.029,13.3011,4.60069,2470.614,2022-10-09T10:20:57Z
2022-10-09T08:22:05Z,42.805,6.029,13.3011,4.60058,2470.624,2022-10-09T10:24:00Z
2022-10-09T08:25:08Z,42.805,6.029,13.3009,4.60060,2470.577,2022-10-09T10:27:03Z
2022-10-09T08:28:11Z,42.805,6.029,13.3011,4.60057,2470.624,2022-10-09T10:30:06Z
2022-10-09T08:31:15Z,42.805,6.029,13.3011,4.60055,2470.646,2022-10-09T10:33:09Z
2022-10-09T08:34:18Z,42.805,6.029,13.3011,4.60055,2470.577,2022-10-09T10:36:12Z
2022-10-09T08:37:21Z,42.805,6.029,13.3015,4.60054,2470.614,2022-10-09T10:39:15Z
2022-10-09T08:40:24Z,42.805,6.029,13.3015,4.60057,2470.6,2022-10-09T10:42:19Z
2022-10-09T08:43:27Z,42.805,6.029,13.3013,4.60058,2470.577,2022-10-09T10:45:22Z
2022-10-09T08:46:30Z,42.805,6.029,13.3011,4.60059,2470.624,2022-10-09T10:48:25Z
2022-10-09T08:49:33Z,42.805,6.029,13.3010,4.60057,2470.6,2022-10-09T10:51:28Z
2022-10-09T08:52:36Z,42.805,6.029,13.3014,4.60067,2470.6,2022-10-09T10:54:31Z
2022-10-09T08:55:40Z,42.805,6.029,13.3014,4.60062,2470.614,2022-10-09T10:57:34Z
2022-10-09T08:58:43Z,42.805,6.029,13.3011,4.60063,2470.591,2022-10-09T11:00:37Z
2022-10-09T09:01:46Z,42.805,6.029,13.3021,4.60060,2470.624,2022-10-09T11:03:40Z
2022-10-09T09:04:49Z,42.805,6.029,13.3024,4.60062,2470.577,2022-10-09T11:06:44Z
2022-10-09T09:07:52Z,42.805,6.029,13.3014,4.60058,2470.567,2022-10-09T11:09:47Z
2022-10-09T09:10:55Z,42.805,6.029,13.3015,4.60056,2470.553,2022-10-09T11:12:50Z
2022-10-09T09:13:58Z,42.805,6.029,13.3016,4.60055,2470.614,2022-10-09T11:15:53Z
2022-10-09T09:17:01Z,42.805,6.029,13.3015,4.60056,2470.577,2022-10-09T11:18:56Z
2022-10-09T09:20:05Z,42.805,6.029,13.3016,4.60057,2470.577,2022-10-09T11:21:59Z
2022-10-09T09:23:08Z,42.805,6.029,13.3015,4.60065,2470.577,2022-10-09T11:25:02Z
2022-10-09T09:26:11Z,42.805,6.029,13.3015,4.60067,2470.53,2022-10-09T11:28:05Z
2022-10-09T09:29:14Z,42.805,6.029,13.3010,4.60074,2470.567,2022-10-09T11:31:08Z
2022-10-09T09:32:17Z,42.805,6.029,13.3014,4.60057,2470.577,2022-10-09T11:34:12Z
2022-10-09T09:35:20Z,42.805,6.029,13.3014,4.60057,2470.591,2022-10-09T11:37:15Z
2022-10-09T09:38:23Z,42.805,6.029,13.3015,4.60057,2470.567,2022-10-09T11:40:18Z
2022-10-09T09:41:26Z,42.805,6.029,13.3012,4.60053,2470.577,2022-10-09T11:43:21Z
2022-10-09T09:44:30Z,42.805,6.029,13.3014,4.60055,2470.544,2022-10-09T11:46:24Z
2022-10-09T09:47:33Z,42.805,6.029,13.3010,4.60053,2470.591,2022-10-09T11:49:27Z
2022-10-09T09:50:36Z,42.805,6.029,13.3012,4.60054,2470.553,2022-10-09T11:52:30Z
2022-10-09T09:53:39Z,42.805,6.029,13.3009,4.60053,2470.553,2022-10-09T11:55:33Z
2022-10-09T09:56:42Z,42.805,6.029,13.3006,4.60054,2470.553,2022-10-09T11:58:37Z
2022-10-09T09:59:45Z,42.805,6.029,13.3011,4.60062,2470.553,2022-10-09T12:01:40Z
2022-10-09T10:02:48Z,42.805,6.029,13.3012,4.60060,2470.544,2022-10-09T12:04:43Z
2022-10-09T10:05:51Z,42.805,6.029,13.3012,4.60057,2470.553,2022-10-09T12:07:46Z
2022-10-09T10:08:54Z,42.805,6.029,13.3010,4.60059,2470.553,2022-10-09T12:10:49Z
2022-10-09T10:11:58Z,42.805,6.029,13.3013,4.60057,2470.577,2022-10-09T12:13:52Z
2022-10-09T10:15:01Z,42.805,6.029,13.3011,4.60054,2470.591,2022-10-09T12:16:55Z
2022-10-09T10:18:04Z,42.805,6.029,13.3006,4.60054,2470.507,2022-10-09T12:19:58Z
2022-10-09T10:21:07Z,42.805,6.029,13.3014,4.60052,2470.52,2022-10-09T12:23:02Z
2022-10-09T10:24:10Z,42.805,6.029,13.3014,4.60053,2470.567,2022-10-09T12:26:05Z
2022-10-09T10:27:13Z,42.805,6.029,13.3012,4.60053,2470.53,2022-10-09T12:29:08Z
2022-10-09T10:30:16Z,42.805,6.029,13.3006,4.60054,2470.553,2022-10-09T12:32:11Z
2022-10-09T10:33:19Z,42.805,6.029,13.3010,4.60053,2470.544,2022-10-09T12:35:14Z
2022-10-09T10:36:23Z,42.805,6.029,13.3009,4.60057,2470.567,2022-10-09T12:38:17Z
2022-10-09T10:39:26Z,42.805,6.029,13.3009,4.60067,2470.53,2022-10-09T12:41:20Z
2022-10-09T10:42:29Z,42.805,6.029,13.3010,4.60060,2470.52,2022-10-09T12:44:23Z
2022-10-09T10:45:32Z,42.805,6.029,13.3011,4.60057,2470.507,2022-10-09T12:47:27Z
2022-10-09T10:48:35Z,42.805,6.029,13.3011,4.60059,2470.507,2022-10-09T12:50:30Z
2022-10-09T10:51:38Z,42.805,6.029,13.3014,4.60059,2470.53,2022-10-09T12:53:33Z
2022-10-09T10:54:41Z,42.805,6.029,13.3010,4.60056,2470.507,2022-10-09T12:56:36Z
2022-10-09T10:57:44Z,42.805,6.029,13.3007,4.60052,2470.507,2022-10-09T12:59:39Z
2022-10-09T11:00:48Z,42.805,6.029,13.3011,4.60054,2470.483,2022-10-09T13:02:42Z
2022-10-09T11:03:51Z,42.805,6.029,13.3012,4.60064,2470.507,2022-10-09T13:05:45Z
2022-10-09T11:06:54Z,42.805,6.029,13.3012,4.60063,2470.544,2022-10-09T13:08:48Z
2022-10-09T11:09:57Z,42.805,6.029,13.3014,4.60062,2470.53,2022-10-09T13:11:51Z
2022-10-09T11:13:00Z,42.805,6.029,13.3023,4.60059,2470.507,2022-10-09T13:14:55Z
2022-10-09T11:16:03Z,42.805,6.029,13.3012,4.60060,2470.52,2022-10-09T13:17:58Z
2022-10-09T11:19:06Z,42.805,6.029,13.3014,4.60055,2470.53,2022-10-09T13:21:01Z
2022-10-09T11:22:09Z,42.805,6.029,13.3013,4.60064,2470.52,2022-10-09T13:24:04Z
2022-10-09T11:25:13Z,42.805,6.029,13.3010,4.60063,2470.497,2022-10-09T13:27:07Z
2022-10-09T11:28:16Z,42.805,6.029,13.3014,4.60057,2470.474,2022-10-09T13:30:10Z
2022-10-09T11:31:19Z,42.805,6.029,13.3016,4.60057,2470.52,2022-10-09T13:33:13Z
2022-10-09T11:34:22Z,42.805,6.029,13.3008,4.60064,2470.52,2022-10-09T13:36:16Z
2022-10-09T11:37:25Z,42.805,6.029,13.3017,4.60056,2470.493,2022-10-09T13:39:20Z
2022-10-09T11:40:28Z,42.805,6.029,13.3010,4.60055,2470.483,2022-10-09T13:42:23Z
2022-10-09T11:43:31Z,42.805,6.029,13.3015,4.60054,2470.52,2022-10-09T13:45:26Z
2022-10-09T11:46:34Z,42.805,6.029,13.3013,4.60059,2470.507,2022-10-09T13:48:29Z
2022-10-09T11:49:37Z,42.805,6.029,13.3011,4.60056,2470.497,2022-10-09T13:51:32Z
2022-10-09T11:52:41Z,42.805,6.029,13.3011,4.60055,2470.507,2022-10-09T13:54:35Z
2022-10-09T11:55:44Z,42.805,6.029,13.3011,4.60058,2470.474,2022-10-09T13:57:38Z
2022-10-09T11:58:47Z,42.805,6.029,13.3009,4.60055,2470.497,2022-10-09T14:00:41Z
2022-10-09T12:01:50Z,42.805,6.029,13.3014,4.60058,2470.46,2022-10-09T14:03:45Z
2022-10-09T12:04:53Z,42.805,6.029,13.3011,4.60061,2470.474,2022-10-09T14:06:48Z
2022-10-09T12:07:56Z,42.805,6.029,13.3008,4.60064,2470.53,2022-10-09T14:09:51Z
2022-10-09T12:10:59Z,42.805,6.029,13.3009,4.60057,2470.474,2022-10-09T14:12:54Z
2022-10-09T12:14:02Z,42.805,6.029,13.3014,4.60052,2470.497,2022-10-09T14:15:57Z
2022-10-09T12:17:06Z,42.805,6.029,13.3011,4.60053,2470.483,2022-10-09T14:19:00Z
2022-10-09T12:20:09Z,42.805,6.029,13.3013,4.60056,2470.483,2022-10-09T14:22:03Z
2022-10-09T12:23:12Z,42.805,6.029,13.3013,4.60057,2470.497,2022-10-09T14:25:06Z
2022-10-09T12:26:15Z,42.805,6.029,13.3015,4.60062,2470.474,2022-10-09T14:28:09Z
2022-10-09T12:29:18Z,42.805,6.029,13.3010,4.60054,2470.497,2022-10-09T14:31:13Z
2022-10-09T12:32:21Z,42.805,6.029,13.3015,4.60061,2470.46,2022-10-09T14:34:16Z
2022-10-09T12:35:24Z,42.805,6.029,13.3013,4.60062,2470.46,2022-10-09T14:37:19Z
2022-10-09T12:38:27Z,42.805,6.029,13.3014,4.60058,2470.483,2022-10-09T14:40:22Z
2022-10-09T12:41:31Z,42.805,6.029,13.3013,4.60062,2470.474,2022-10-09T14:43:25Z
2022-10-09T12:44:34Z,42.805,6.029,13.3015,4.60057,2470.52,2022-10-09T14:46:28Z
2022-10-09T12:47:37Z,42.805,6.029,13.3010,4.60059,2470.474,2022-10-09T14:49:31Z
2022-10-09T12:50:40Z,42.805,6.029,13.3010,4.60058,2470.437,2022-10-09T14:52:34Z
2022-10-09T12:53:43Z,42.805,6.029,13.3013,4.60079,2470.474,2022-10-09T14:55:38Z
2022-10-09T12:56:46Z,42.805,6.029,13.3009,4.60057,2470.474,2022-10-09T14:58:41Z
2022-10-09T12:59:49Z,42.805,6.029,13.3008,4.60054,2470.45,2022-10-09T15:01:44Z
2022-10-09T13:02:52Z,42.805,6.029,13.3015,4.60053,2470.437,2022-10-09T15:04:47Z
2022-10-09T13:05:55Z,42.805,6.029,13.3018,4.60053,2470.46,2022-10-09T15:07:50Z
2022-10-09T13:08:59Z,42.805,6.029,13.3009,4.60057,2470.474,2022-10-09T15:10:53Z
2022-10-09T13:12:02Z,42.805,6.029,13.3013,4.60052,2470.474,2022-10-09T15:13:56Z
2022-10-09T13:15:05Z,42.805,6.029,13.3010,4.60052,2470.497,2022-10-09T15:16:59Z
2022-10-09T13:18:08Z,42.805,6.029,13.3010,4.60055,2470.474,2022-10-09T15:20:03Z
2022-10-09T13:21:11Z,42.805,6.029,13.3013,4.60053,2470.483,2022-10-09T15:23:06Z
2022-10-09T13:24:14Z,42.805,6.029,13.3009,4.60052,2470.437,2022-10-09T15:26:09Z
2022-10-09T13:27:17Z,42.805,6.029,13.3010,4.60052,2470.474,2022-10-09T15:29:12Z
2022-10-09T13:30:20Z,42.805,6.029,13.3008,4.60055,2470.45,2022-10-09T15:32:15Z
2022-10-09T13:33:24Z,42.805,6.029,13.3014,4.60052,2470.46,2022-10-09T15:35:18Z
2022-10-09T13:36:27Z,42.805,6.029,13.3011,4.60054,2470.46,2022-10-09T15:38:21Z
2022-10-09T13:39:30Z,42.805,6.029,13.3009,4.60051,2470.474,2022-10-09T15:41:24Z
2022-10-09T13:42:33Z,42.805,6.029,13.3011,4.60052,2470.46,2022-10-09T15:44:27Z
2022-10-09T13:45:36Z,42.805,6.029,13.3009,4.60053,2470.483,2022-10-09T15:47:31Z
2022-10-09T13:48:39Z,42.805,6.029,13.3010,4.60056,2470.483,2022-10-09T15:50:34Z
2022-10-09T13:51:42Z,42.805,6.029,13.3011,4.60052,2470.45,2022-10-09T15:53:37Z
2022-10-09T13:54:45Z,42.805,6.029,13.3009,4.60054,2470.413,2022-10-09T15:56:40Z
2022-10-09T13:57:49Z,42.805,6.029,13.3011,4.60054,2470.46,2022-10-09T15:59:43Z
2022-10-09T14:00:52Z,42.805,6.029,13.3011,4.60053,2470.474,2022-10-09T16:02:46Z
2022-10-09T14:03:55Z,42.805,6.029,13.3011,4.60061,2470.437,2022-10-09T16:05:49Z
2022-10-09T14:06:58Z,42.805,6.029,13.3013,4.60057,2470.497,2022-10-09T16:08:52Z
2022-10-09T14:10:01Z,42.805,6.029,13.3011,4.60053,2470.483,2022-10-09T16:11:56Z
2022-10-09T14:13:04Z,42.805,6.029,13.3009,4.60053,2470.474,2022-10-09T16:14:59Z
2022-10-09T14:16:07Z,42.805,6.029,13.3018,4.60054,2470.46,2022-10-09T16:18:02Z
2022-10-09T14:19:10Z,42.805,6.029,13.3015,4.60054,2470.46,2022-10-09T16:21:05Z
2022-10-09T14:22:13Z,42.805,6.029,13.3009,4.60068,2470.437,2022-10-09T16:24:08Z
2022-10-09T14:25:17Z,42.805,6.029,13.3014,4.60057,2470.483,2022-10-09T16:27:11Z
2022-10-09T14:28:20Z,42.805,6.029,13.3011,4.60061,2470.483,2022-10-09T16:30:14Z
2022-10-09T14:31:23Z,42.805,6.029,13.3010,4.60062,2470.497,2022-10-09T16:33:17Z
2022-10-09T14:34:26Z,42.805,6.029,13.3011,4.60057,2470.483,2022-10-09T16:36:21Z
2022-10-09T14:37:29Z,42.805,6.029,13.3015,4.60053,2470.52,2022-10-09T16:39:24Z
2022-10-09T14:40:32Z,42.805,6.029,13.3011,4.60059,2470.45,2022-10-09T16:42:27Z
2022-10-09T14:43:35Z,42.805,6.029,13.3011,4.60055,2470.544,2022-10-09T16:45:30Z
2022-10-09T14:46:38Z,42.805,6.029,13.3011,4.60052,2470.497,2022-10-09T16:48:33Z
2022-10-09T14:49:42Z,42.805,6.029,13.3011,4.60056,2470.483,2022-10-09T16:51:36Z
2022-10-09T14:52:45Z,42.805,6.029,13.3013,4.60061,2470.52,2022-10-09T16:54:39Z
2022-10-09T14:55:48Z,42.805,6.029,13.3010,4.60060,2470.483,2022-10-09T16:57:42Z
2022-10-09T14:58:51Z,42.805,6.029,13.3010,4.60052,2470.497,2022-10-09T17:00:46Z
2022-10-09T15:01:54Z,42.805,6.029,13.3006,4.60055,2470.544,2022-10-09T17:03:49Z